1536512400.96,25304,20.06,74492.5,1.33,-21.93,-22.17,0,*73
1536512402.19,25305,20.06,74492.5,1.33,-21.93,-22.07,0,*73
1536512403.41,25306,20.06,74492.5,1.31,-22.03,-22.21,0,*7C
1536512404.67,25307,20.06,74494.3,1.33,-21.87,-22.07,0,*74
1536512405.89,25308,20.06,74494.8,1.33,-21.73,-21.93,0,*7E
1536512407.12,25309,20.06,74494.3,1.33,-21.77,-22.03,0,*71
1536512408.35,25310,20.06,74492.8,1.31,-21.93,-22.21,0,*71
1536512409.58,25311,20.06,74492.0,1.31,-21.93,-22.17,0,*75
1536512410.84,25312,20.06,74494.5,1.33,-21.77,-22.17,0,*7E
1536512412.06,25313,20.06,74492.5,1.33,-21.77,-22.03,0,*7A
1536512413.26,25314,20.06,74494.3,1.31,-22.03,-22.37,0,*78
1536512414.49,25315,20.06,74494.3,1.31,-22.03,-22.31,0,*7F
1536512415.7,25316,20.06,74494.5,1.33,-22.07,-22.37,0,*7C
1536512416.95,25317,20.06,74498.0,1.33,-22.03,-22.21,0,*7E
1536512418.14,25318,20.06,74492.3,1.31,-22.07,-22.37,0,*70
1536512419.39,25319,20.06,74492.3,1.33,-22.03,-22.21,0,*70
1536512420.63,25320,20.06,74492.0,1.33,-22.03,-22.21,0,*7A
1536512421.85,25321,20.06,74494.5,1.31,-22.03,-22.21,0,*79
1536512423.11,25322,20.06,74494.3,1.31,-21.87,-22.17,0,*70
1536512424.33,25323,20.06,74492.5,1.31,-22.03,-22.21,0,*7B
1536512425.58,25324,20.06,74492.5,1.33,-21.93,-22.21,0,*74
1536512426.81,25325,20.06,74496.8,1.31,-22.03,-22.17,0,*78
1536512428.04,25326,20.06,74494.0,1.31,-21.93,-22.21,0,*74
1536512429.26,25327,20.06,74494.5,1.33,-22.07,-22.37,0,*7E
1536512430.49,25328,20.06,74496.0,1.31,-22.17,-22.37,0,*72
1536512431.72,25329,20.06,74494.3,1.31,-21.93,-22.17,0,*7E
1536512432.93,25330,20.06,74494.3,1.31,-21.77,-22.03,0,*79
1536512434.13,25331,20.06,74494.3,1.31,-21.73,-22.03,0,*7C
1536512435.36,25332,20.06,74492.5,1.31,-21.93,-22.21,0,*71
1536512436.58,25333,20.06,74496.8,1.31,-22.07,-22.21,0,*7E
1536512437.8,25334,20.06,74494.3,1.31,-22.03,-22.31,0,*7C
1536512439.02,25335,20.06,74496.3,1.31,-22.03,-22.21,0,*7C
1536512440.24,25336,20.06,74496.0,1.31,-22.07,-22.21,0,*7B
1536512441.47,25337,20.06,74494.8,1.31,-21.93,-22.21,0,*74
1536512442.7,25338,20.06,74494.5,1.31,-21.93,-22.21,0,*7B
1536512443.96,25339,20.06,74494.8,1.33,-21.93,-22.17,0,*7D
1536512445.18,25340,20.06,74494.3,1.31,-22.03,-22.31,0,*7F
1536512446.44,25341,20.06,74492.0,1.31,-21.87,-22.17,0,*75
1536512447.68,25342,20.06,74494.5,1.31,-21.93,-22.17,0,*73
1536512448.9,25343,20.06,74494.5,1.29,-22.11,-22.41,0,*71
1536512450.12,25344,20.06,74496.5,1.29,-22.11,-22.41,0,*76
1536512451.34,25345,20.06,74492.5,1.31,-22.03,-22.31,0,*7A
1536512452.56,25346,20.06,74492.5,1.29,-22.07,-22.37,0,*72
1536512453.78,25347,20.06,74496.8,1.29,-22.07,-22.37,0,*73
1536512454.99,25348,20.06,74494.5,1.29,-22.07,-22.41,0,*7D
1536512456.21,25349,20.06,74496.5,1.29,-22.11,-22.37,0,*7A
1536512457.43,25350,20.06,74498.8,1.29,-22.11,-22.41,0,*73
1536512458.65,25351,20.06,74494.5,1.29,-22.07,-22.27,0,*75
1536512459.9,25352,20.06,74496.5,1.29,-21.93,-22.21,0,*7E
1536512461.12,25353,20.06,74496.8,1.29,-22.07,-22.27,0,*77
1536512462.34,25354,20.06,74498.0,1.29,-22.07,-22.37,0,*71
1536512463.55,25355,20.06,74492.5,1.29,-22.11,-22.41,0,*76
1536512464.77,25356,20.06,74494.0,1.29,-22.07,-22.41,0,*72
1536512465.96,25357,20.06,74496.5,1.27,-22.07,-22.37,0,*7C
1536512467.18,25358,20.06,74492.3,1.29,-22.11,-22.37,0,*7A
1536512468.4,25359,20.06,74492.5,1.29,-22.11,-22.41,0,*7A
1536512469.65,25360,20.06,74496.8,1.29,-22.21,-22.41,0,*73
1536512470.85,25361,20.06,74492.0,1.27,-22.11,-22.37,0,*7E
1536512472.04,25362,20.06,74492.5,1.27,-22.07,-22.37,0,*7A
1536512473.23,25363,20.06,74494.3,1.27,-22.07,-22.27,0,*7A
1536512474.49,25364,20.06,74498.3,1.25,-22.03,-22.31,0,*7C
1536512475.69,25365,20.06,74494.0,1.27,-22.11,-22.27,0,*7B
1536512476.92,25366,20.06,74492.3,1.27,-22.21,-22.53,0,*78
1536512478.16,25367,20.06,74494.3,1.29,-22.21,-22.41,0,*74
1536512479.41,25368,20.06,74492.8,1.29,-22.21,-22.41,0,*7B
1536512480.63,25369,20.06,74496.0,1.29,-22.11,-22.37,0,*78
1536512481.83,25370,20.06,74498.3,1.27,-22.11,-22.37,0,*7E
1536512483.03,25371,20.06,74496.0,1.27,-22.11,-22.37,0,*7F
1536512484.22,25372,20.06,74492.3,1.27,-22.07,-22.27,0,*7A
1536512485.43,25373,20.06,74492.8,1.27,-21.77,-22.07,0,*7D
1536512486.67,25374,20.06,74496.0,1.27,-21.97,-22.21,0,*70
1536512487.92,25375,20.06,74498.3,1.27,-21.97,-22.21,0,*71
1536512489.15,25376,20.06,74496.8,1.27,-21.93,-22.21,0,*76
1536512490.4,25377,20.06,74496.3,1.27,-21.97,-22.21,0,*73
1536512491.62,25378,20.06,74498.0,1.27,-22.07,-22.21,0,*76
1536512492.86,25379,20.06,74494.5,1.27,-21.97,-22.21,0,*7D
1536512494.09,25380,20.06,74492.0,1.27,-21.93,-22.21,0,*7F
1536512495.34,25381,20.06,74492.8,1.27,-21.97,-22.21,0,*7A
1536512496.56,25382,20.06,74496.3,1.27,-21.97,-22.27,0,*7F
1536512497.77,25383,20.06,74498.5,1.27,-21.93,-22.27,0,*7A
1536512498.99,25384,20.06,74496.3,1.25,-22.03,-22.27,0,*75
1536512500.21,25385,20.06,74494.8,1.27,-22.07,-22.21,0,*74
1536512501.41,25386,20.06,74496.5,1.27,-22.11,-22.37,0,*77
1536512502.66,25387,20.06,74494.0,1.25,-22.17,-22.41,0,*73
1536512503.88,25388,20.06,74492.0,1.25,-22.11,-22.27,0,*7A
1536512505.11,25389,20.06,74496.0,1.27,-21.97,-22.27,0,*74
1536512506.36,25390,20.06,74492.8,1.25,-21.97,-22.27,0,*7E
1536512507.58,25391,20.06,74492.0,1.25,-22.11,-22.27,0,*72
1536512508.83,25392,20.06,74494.8,1.25,-22.17,-22.41,0,*77
1536512510.05,25393,20.06,74496.5,1.25,-22.11,-22.41,0,*70
1536512511.3,25394,20.06,74492.3,1.25,-22.11,-22.31,0,*70
1536512512.56,25395,20.06,74492.0,1.23,-22.17,-22.31,0,*71
1536512513.82,25396,20.06,74494.5,1.25,-22.11,-22.31,0,*72
1536512515.05,25397,20.06,74496.0,1.23,-22.03,-22.17,0,*72
1536512516.33,25398,20.06,74492.0,1.25,-21.97,-22.17,0,*75
1536512517.58,25399,20.06,74496.0,1.23,-21.97,-22.17,0,*72
1536512518.84,25400,20.06,74492.5,1.25,-21.83,-22.03,0,*73
1536512520.09,25401,20.06,74494.5,1.25,-22.03,-22.17,0,*7C
1536512521.34,25402,20.06,74494.0,1.25,-21.97,-22.11,0,*77
1536512522.61,25403,20.06,74494.0,1.25,-21.67,-21.97,0,*74
1536512523.86,25404,20.06,74494.5,1.25,-21.87,-22.11,0,*70
1536512525.09,25405,20.06,74492.8,1.25,-22.03,-22.27,0,*7B
1536512526.34,25406,20.06,74494.3,1.25,-21.97,-22.11,0,*73
1536512527.59,25407,20.06,74496.8,1.25,-22.11,-22.31,0,*7D
1536512528.81,25408,20.06,74492.3,1.27,-22.07,-22.21,0,*76
1536512530.0,25409,20.06,74494.5,1.27,-22.07,-22.27,0,*71
1536512531.22,25410,20.06,74492.3,1.25,-22.03,-22.27,0,*7F
1536512532.47,25411,20.06,74492.0,1.25,-22.03,-22.31,0,*79
1536512533.7,25412,20.06,74498.8,1.23,-22.17,-22.41,0,*7E
1536512534.93,25413,20.06,74492.3,1.23,-21.97,-22.11,0,*71
1536512536.19,25414,20.06,74494.8,1.23,-21.97,-22.17,0,*70
1536512537.44,25415,20.06,74492.3,1.25,-22.03,-22.17,0,*79
1536512538.66,25416,20.06,74496.3,1.25,-22.03,-22.27,0,*79
1536512539.87,25417,20.06,74498.0,1.23,-22.03,-22.27,0,*7E
1536512541.09,25418,20.06,74496.3,1.25,-22.11,-22.27,0,*74
1536512542.32,25419,20.06,74492.3,1.23,-22.03,-22.17,0,*73
1536512543.54,25420,20.06,74498.3,1.25,-22.03,-22.27,0,*7C
1536512544.78,25421,20.06,74498.0,1.23,-22.11,-22.31,0,*7F
1536512546.01,25422,20.06,74492.5,1.23,-22.03,-22.31,0,*7F
1536512547.23,25423,20.06,74496.5,1.23,-21.97,-22.27,0,*77
1536512548.47,25424,20.06,74494.3,1.23,-22.11,-22.31,0,*7A
1536512549.73,25425,20.06,74498.0,1.23,-22.17,-22.31,0,*7D
1536512550.93,25426,20.06,74494.8,1.23,-22.11,-22.27,0,*7F
1536512552.14,25427,20.06,74494.8,1.23,-22.11,-22.27,0,*7E
1536512553.37,25428,20.06,74496.0,1.23,-21.83,-22.11,0,*7C
1536512554.6,25429,20.06,74494.5,1.23,-21.87,-22.11,0,*79
1536512555.84,25430,20.06,74494.8,1.23,-21.87,-22.03,0,*72
1536512557.1,25431,20.06,74494.8,1.23,-21.97,-22.17,0,*77
1536512558.3,25432,20.06,74496.3,1.23,-22.03,-22.11,0,*7C
1536512559.55,25433,20.06,74496.3,1.23,-21.67,-21.97,0,*71
1536512560.79,25434,20.06,74496.0,1.23,-22.03,-22.17,0,*7C
1536512561.99,25435,20.06,74496.0,1.23,-22.11,-22.27,0,*7D
1536512563.22,25436,20.06,74498.8,1.23,-22.11,-22.31,0,*79
1536512564.45,25437,20.06,74494.8,1.23,-21.97,-22.11,0,*77
1536512565.69,25438,20.06,74492.3,1.21,-22.07,-22.21,0,*73
1536512566.92,25439,20.06,74492.5,1.23,-21.97,-22.27,0,*7C
1536512568.18,25440,20.06,74496.8,1.21,-21.93,-22.17,0,*77
1536512569.44,25441,20.06,74494.5,1.21,-21.93,-22.17,0,*76
1536512570.72,25442,20.06,74492.8,1.21,-22.17,-22.21,0,*7F
1536512571.92,25443,20.06,74496.3,1.23,-21.73,-22.03,0,*7D
1536512573.19,25444,20.06,74498.0,1.23,-21.87,-22.17,0,*74
1536512574.42,25445,20.06,74496.8,1.23,-21.73,-21.97,0,*75
1536512575.65,25446,20.06,74494.8,1.23,-21.97,-22.03,0,*72
1536512576.89,25447,20.0,74490.8,1.25,-21.97,-22.11,0,*76
1536512578.15,25448,20.06,74494.8,1.23,-21.97,-22.17,0,*79
1536512579.38,25449,20.06,74494.8,1.25,-22.11,-22.27,0,*70
1536512580.6,25450,20.06,74492.5,1.23,-21.97,-22.11,0,*76
1536512581.84,25451,20.06,74492.5,1.23,-22.03,-22.17,0,*7F
1536512583.08,25452,20.0,74490.8,1.21,-22.03,-22.21,0,*7B
1536512584.37,25453,20.06,74492.8,1.21,-22.17,-22.31,0,*7E
1536512585.62,25454,20.06,74492.3,1.21,-22.31,-22.53,0,*79
1536512586.9,25455,20.06,74494.3,1.21,-22.17,-22.31,0,*78
1536512588.13,25456,20.06,74494.0,1.21,-21.93,-22.07,0,*71
1536512589.41,25457,20.06,74492.3,1.21,-22.17,-22.31,0,*7A
1536512590.64,25458,20.06,74494.5,1.21,-21.77,-22.07,0,*75
1536512591.87,25459,20.0,74494.0,1.21,-21.93,-22.07,0,*7E
1536512593.09,25460,20.06,74492.5,1.17,-22.11,-22.27,0,*7A
1536512594.38,25461,20.06,74494.8,1.21,-21.87,-22.17,0,*71
1536512595.62,25462,20.06,74494.0,1.21,-22.07,-22.21,0,*7C
1536512596.87,25463,20.06,74498.5,1.21,-22.03,-22.21,0,*79
1536512598.09,25464,20.06,74494.0,1.17,-22.11,-22.41,0,*7E
1536512599.32,25465,20.06,74494.5,1.17,-22.27,-22.53,0,*79
1536512600.6,25466,20.0,74492.0,1.21,-22.17,-22.31,0,*78
1536512601.85,25467,20.06,74494.3,1.21,-22.03,-22.17,0,*78
1536512603.1,25468,20.06,74494.3,1.21,-22.07,-22.21,0,*76
1536512604.34,25469,20.06,74496.5,1.21,-22.03,-22.21,0,*73
1536512605.59,25470,20.06,74494.5,1.21,-22.03,-22.17,0,*7E
1536512606.85,25471,20.0,74492.0,1.17,-21.83,-22.07,0,*70
1536512608.09,25472,20.06,74494.8,1.17,-22.07,-22.21,0,*78
1536512609.37,25473,20.06,74496.3,1.21,-22.17,-22.31,0,*7C
1536512610.65,25474,20.06,74494.8,1.17,-21.97,-22.21,0,*74
1536512611.89,25475,20.06,74492.8,1.21,-22.03,-22.21,0,*7E
1536512613.14,25476,20.06,74494.8,1.21,-22.03,-22.21,0,*7D
1536512614.4,25477,20.06,74496.5,1.21,-21.93,-22.17,0,*73
1536512615.65,25478,20.06,74496.3,1.17,-21.97,-22.27,0,*7E
1536512616.91,25479,20.06,74494.0,1.21,-21.93,-22.17,0,*7D
1536512618.16,25480,20.06,74494.8,1.17,-21.97,-22.11,0,*7C
1536512619.39,25481,20.06,74494.8,1.17,-22.11,-22.27,0,*75
1536512620.61,25482,20.06,74496.5,1.17,-22.07,-22.27,0,*71
1536512621.85,25483,20.06,74492.3,1.17,-22.07,-22.21,0,*76
1536512623.11,25484,20.06,74494.8,1.21,-21.93,-22.17,0,*7F
1536512624.34,25485,20.0,74490.8,1.17,-22.11,-22.37,0,*70
1536512625.61,25486,20.06,74496.5,1.17,-21.97,-22.21,0,*79
1536512626.84,25487,20.0,74492.8,1.21,-21.93,-22.11,0,*7A
1536512628.06,25488,20.06,74494.8,1.21,-21.93,-22.07,0,*72
1536512629.32,25489,20.0,74494.0,1.21,-21.93,-22.17,0,*72
1536512630.54,25490,20.0,74492.5,1.17,-22.07,-22.11,0,*77
1536512631.77,25491,20.06,74492.5,1.17,-22.11,-22.27,0,*74
1536512632.99,25492,20.0,74490.8,1.17,-22.07,-22.27,0,*70
1536512634.25,25493,20.06,74494.5,1.21,-22.03,-22.17,0,*73
1536512635.52,25494,20.06,74494.8,1.17,-21.97,-22.21,0,*7A
1536512636.79,25495,20.06,74492.3,1.17,-21.97,-22.21,0,*7B
1536512638.04,25496,20.06,74492.0,1.17,-22.07,-22.21,0,*72
1536512639.28,25497,20.06,74492.5,1.17,-22.07,-22.21,0,*73
1536512640.51,25498,20.06,74494.3,1.17,-21.93,-22.11,0,*71
1536512641.77,25499,20.06,74496.5,1.21,-22.17,-22.37,0,*7E
1536512642.99,25500,20.0,74488.3,1.17,-22.11,-22.37,0,*7C
1536512644.24,25501,20.06,74494.5,1.17,-22.21,-22.37,0,*7E
1536512645.5,25502,20.0,74494.0,1.17,-22.21,-22.37,0,*7D
1536512646.7,25503,20.06,74494.8,1.15,-22.27,-22.41,0,*79
1536512647.93,25504,20.06,74492.8,1.15,-22.21,-22.37,0,*79
1536512649.16,25505,20.06,74494.8,1.15,-22.07,-22.21,0,*7B
1536512650.36,25506,20.06,74494.8,1.15,-22.07,-22.27,0,*7E
1536512651.57,25507,20.0,74490.8,1.15,-22.11,-22.27,0,*78
1536512652.8,25508,20.06,74494.3,1.15,-22.21,-22.27,0,*74
1536512654.01,25509,20.06,74492.5,1.15,-22.11,-22.27,0,*76
1536512655.21,25510,20.06,74492.5,1.15,-22.07,-22.11,0,*7C
1536512656.47,25511,20.06,74492.3,1.15,-21.83,-21.97,0,*7F
1536512657.72,25512,20.0,74488.3,1.15,-21.97,-22.21,0,*77
1536512658.95,25513,20.06,74492.0,1.17,-21.93,-22.07,0,*74
1536512660.16,25514,20.06,74492.0,1.15,-21.93,-22.07,0,*71
1536512661.42,25515,20.06,74494.8,1.15,-21.97,-22.21,0,*70
1536512662.66,25516,20.06,74492.5,1.17,-22.07,-22.21,0,*7B
1536512663.89,25517,20.0,74492.8,1.17,-22.11,-22.27,0,*7B
1536512665.12,25518,20.0,74488.3,1.15,-21.97,-22.11,0,*7E
1536512666.33,25519,20.06,74494.0,1.15,-21.93,-22.07,0,*7C
1536512667.58,25520,20.0,74494.0,1.17,-22.11,-22.21,0,*79
1536512668.83,25521,20.06,74496.3,1.17,-22.07,-22.21,0,*7F
1536512670.05,25522,20.06,74494.8,1.17,-22.07,-22.11,0,*7F
1536512671.28,25523,20.06,74494.8,1.15,-21.97,-22.11,0,*76
1536512672.51,25524,20.06,74494.5,1.15,-22.07,-22.21,0,*78
1536512673.72,25525,20.0,74490.5,1.15,-21.93,-22.07,0,*73
1536512674.92,25526,20.06,74492.3,1.15,-22.11,-22.27,0,*7B
1536512676.13,25527,20.0,74490.8,1.15,-22.07,-22.27,0,*7D
1536512677.33,25528,20.0,74490.3,1.15,-22.07,-22.11,0,*77
1536512678.53,25529,20.0,74490.5,1.15,-22.07,-22.11,0,*76
1536512679.76,25530,20.0,74488.3,1.15,-21.77,-21.97,0,*77
1536512681.0,25531,20.06,74492.5,1.15,-21.77,-21.97,0,*76
1536512682.27,25532,20.0,74492.0,1.17,-21.83,-21.97,0,*7C
1536512683.5,25533,20.06,74492.8,1.15,-21.97,-22.07,0,*70
1536512684.71,25534,20.0,74492.8,1.15,-21.93,-22.07,0,*73
1536512685.92,25535,20.0,74488.5,1.15,-22.07,-22.27,0,*7E
1536512687.14,25536,20.0,74492.0,1.15,-22.07,-22.21,0,*7B
1536512688.35,25537,20.06,74494.5,1.15,-21.93,-22.07,0,*70
1536512689.6,25538,20.0,74490.0,1.17,-21.97,-22.11,0,*7E
1536512690.85,25539,20.0,74488.5,1.17,-21.97,-22.11,0,*7F
1536512692.08,25540,20.0,74492.3,1.17,-21.93,-22.07,0,*72
1536512693.31,25541,20.0,74492.5,1.21,-21.73,-22.03,0,*7C
1536512694.53,25542,20.0,74490.8,1.17,-22.07,-22.07,0,*7E
1536512695.78,25543,20.06,74492.5,1.17,-22.07,-22.21,0,*7B
1536512697.02,25544,20.0,74492.0,1.17,-22.07,-22.21,0,*7C
1536512698.27,25545,20.06,74494.5,1.17,-21.97,-22.11,0,*74
1536512699.5,25546,20.0,74492.3,1.17,-21.93,-22.11,0,*73
1536512700.73,25547,20.0,74492.3,1.17,-22.11,-22.11,0,*7B
1536512701.95,25548,20.0,74488.8,1.17,-22.07,-22.07,0,*74
1536512703.2,25549,20.06,74494.5,1.21,-21.63,-21.87,0,*7A
1536512704.43,25550,20.0,74494.0,1.21,-21.73,-21.93,0,*76
1536512705.68,25551,20.0,74490.8,1.17,-22.07,-22.21,0,*78
1536512706.93,25552,20.0,74490.5,1.17,-22.11,-22.21,0,*7C
1536512708.18,25553,20.0,74490.0,1.17,-21.97,-22.11,0,*73
1536512709.43,25554,20.0,74494.3,1.17,-21.83,-22.07,0,*76
1536512710.68,25555,20.0,74488.3,1.17,-21.83,-22.07,0,*77
1536512711.94,25556,20.0,74492.3,1.17,-21.67,-21.93,0,*70
1536512713.19,25557,20.06,74492.5,1.17,-21.57,-21.77,0,*78
1536512714.42,25558,20.0,74488.5,1.21,-21.73,-21.93,0,*7E
1536512715.65,25559,20.0,74490.8,1.21,-21.77,-21.93,0,*7B
1536512716.9,25560,20.0,74490.8,1.17,-21.77,-21.97,0,*70
1536512718.16,25561,20.0,74490.5,1.21,-21.87,-21.93,0,*7F
1536512719.41,25562,20.0,74486.8,1.21,-21.57,-21.73,0,*7F
1536512720.66,25563,20.0,74488.3,1.17,-21.83,-22.11,0,*75
1536512721.89,25564,20.0,74490.8,1.21,-21.77,-21.93,0,*75
1536512723.14,25565,20.06,74494.8,1.21,-21.87,-22.03,0,*71
1536512724.37,25566,20.0,74490.8,1.21,-21.93,-22.07,0,*73
1536512725.62,25567,20.0,74488.3,1.21,-22.03,-22.17,0,*79
1536512726.85,25568,20.0,74488.0,1.21,-22.03,-22.07,0,*77
1536512728.07,25569,20.0,74492.3,1.21,-22.03,-22.03,0,*72
1536512729.3,25570,20.0,74492.5,1.21,-21.93,-22.03,0,*70
1536512730.52,25571,20.0,74490.8,1.17,-22.11,-22.27,0,*7B
1536512731.75,25572,20.0,74492.0,1.21,-22.03,-22.07,0,*7C
1536512732.97,25573,20.0,74494.5,1.21,-22.03,-22.03,0,*79
1536512734.22,25574,20.0,74494.5,1.21,-21.87,-22.03,0,*71
1536512735.45,25575,20.0,74490.0,1.21,-21.93,-22.07,0,*71
1536512736.68,25576,20.0,74490.0,1.17,-21.93,-22.07,0,*77
1536512737.91,25577,20.0,74488.3,1.21,-21.93,-21.93,0,*7D
1536512739.14,25578,20.0,74492.0,1.17,-22.11,-22.11,0,*77
1536512740.37,25579,20.0,74494.3,1.21,-21.93,-22.03,0,*79
1536512741.62,25580,20.0,74490.0,1.17,-21.97,-22.11,0,*7D
1536512742.86,25581,20.0,74490.0,1.21,-22.07,-22.21,0,*70
1536512744.14,25582,20.0,74490.8,1.21,-22.17,-22.31,0,*73
1536512745.38,25583,20.0,74490.8,1.21,-22.07,-22.21,0,*72
1536512746.61,25584,20.0,74494.8,1.17,-22.11,-22.27,0,*71
1536512747.86,25585,20.0,74494.8,1.17,-22.11,-22.21,0,*76
1536512749.15,25586,20.0,74490.8,1.21,-22.17,-22.31,0,*77
1536512750.37,25587,20.0,74490.8,1.17,-22.11,-22.27,0,*72
1536512751.63,25588,20.0,74490.3,1.21,-22.03,-22.17,0,*78
1536512752.85,25589,20.0,74494.0,1.17,-22.07,-22.11,0,*7E
1536512754.12,25590,20.0,74490.5,1.17,-21.97,-22.21,0,*7F
1536512755.34,25591,20.0,74490.0,1.17,-22.07,-22.27,0,*72
1536512756.6,25592,20.06,74492.5,1.21,-21.87,-22.03,0,*79
1536512757.84,25593,20.0,74494.8,1.17,-22.07,-22.21,0,*76
1536512759.06,25594,20.0,74490.0,1.17,-22.07,-22.11,0,*72
1536512760.34,25595,20.0,74490.5,1.17,-21.97,-22.21,0,*7A
1536512761.59,25596,20.0,74490.8,1.17,-21.97,-22.11,0,*7A
1536512762.82,25597,20.0,74486.8,1.17,-22.11,-22.27,0,*73
1536512764.04,25598,20.0,74490.8,1.17,-22.07,-22.27,0,*7B
1536512765.26,25599,20.0,74492.8,1.17,-22.07,-22.11,0,*7F
1536512766.51,25600,20.0,74490.0,1.17,-21.97,-22.11,0,*76
1536512767.74,25601,20.0,74490.5,1.13,-22.03,-22.27,0,*78
1536512768.97,25602,20.0,74488.8,1.15,-21.97,-22.07,0,*71
1536512770.22,25603,20.0,74490.8,1.17,-21.97,-22.07,0,*72
1536512771.45,25604,20.0,74490.8,1.17,-21.93,-22.07,0,*71
1536512772.73,25605,20.0,74492.5,1.17,-21.97,-22.21,0,*70
1536512773.94,25606,20.0,74488.5,1.15,-21.93,-22.07,0,*71
1536512775.17,25607,20.0,74490.3,1.15,-21.97,-22.11,0,*73
1536512776.4,25608,20.0,74490.5,1.15,-21.83,-22.07,0,*7E
1536512777.61,25609,20.0,74490.3,1.15,-21.93,-22.11,0,*79
1536512778.87,25610,20.0,74488.0,1.15,-22.21,-22.21,0,*78
1536512780.1,25611,20.0,74490.0,1.15,-21.83,-22.07,0,*76
1536512781.38,25612,20.0,74490.0,1.17,-21.83,-21.97,0,*7D
1536512782.61,25613,20.0,74490.8,1.17,-21.93,-22.07,0,*77
1536512783.82,25614,20.0,74490.0,1.15,-21.93,-22.07,0,*72
1536512785.03,25615,20.0,74488.3,1.15,-21.93,-22.11,0,*74
1536512786.27,25616,20.0,74490.3,1.15,-21.83,-22.07,0,*71
1536512787.51,25617,20.0,74490.5,1.17,-22.07,-22.21,0,*79
1536512788.72,25618,20.0,74490.3,1.15,-22.11,-22.27,0,*75
1536512789.93,25619,20.0,74488.5,1.15,-21.93,-22.07,0,*7F
1536512791.16,25620,20.0,74490.8,1.17,-21.93,-22.07,0,*77
1536512792.37,25621,20.0,74492.0,1.15,-21.93,-22.07,0,*74
1536512793.58,25622,20.0,74488.3,1.15,-21.93,-22.07,0,*77
1536512794.81,25623,20.0,74488.3,1.15,-21.97,-22.07,0,*72
1536512796.06,25624,20.0,74490.0,1.17,-21.83,-22.07,0,*72
1536512797.3,25625,20.0,74490.5,1.15,-21.97,-22.07,0,*74
1536512798.54,25626,20.0,74490.3,1.17,-21.97,-22.07,0,*75
1536512799.82,25627,20.0,74490.0,1.17,-21.83,-21.97,0,*7B
1536512801.07,25628,20.0,74488.3,1.17,-21.97,-22.11,0,*7C
1536512802.33,25629,20.0,74488.8,1.21,-21.87,-22.03,0,*7A
1536512803.56,25630,20.0,74486.3,1.17,-21.93,-22.07,0,*76
1536512804.78,25631,20.0,74488.8,1.17,-22.11,-22.27,0,*7C
1536512806.06,25632,20.0,74490.0,1.17,-21.97,-22.21,0,*74
1536512807.29,25633,20.0,74490.5,1.17,-21.93,-22.07,0,*75
1536512808.52,25634,20.0,74490.0,1.17,-21.93,-22.11,0,*75
1536512809.74,25635,20.0,74488.3,1.17,-22.07,-22.11,0,*7A
1536512810.96,25636,20.0,74488.5,1.17,-22.07,-22.07,0,*7E
1536512812.18,25637,20.0,74490.0,1.21,-22.03,-22.07,0,*7E
1536512813.44,25638,20.0,74492.8,1.17,-21.83,-21.93,0,*71
1536512814.69,25639,20.0,74488.0,1.17,-21.93,-21.97,0,*75
1536512815.94,25640,20.0,74488.0,1.17,-21.97,-22.07,0,*75
1536512817.19,25641,20.0,74494.3,1.17,-21.97,-22.07,0,*74
1536512818.44,25642,20.0,74490.3,1.17,-21.97,-22.07,0,*77
1536512819.72,25643,20.0,74488.5,1.17,-21.97,-22.21,0,*72
1536512820.97,25644,20.0,74488.0,1.17,-21.67,-22.07,0,*7E
1536512822.23,25645,20.0,74488.3,1.17,-21.93,-21.97,0,*7E
1536512823.48,25646,20.0,74490.8,1.21,-21.73,-21.87,0,*77
1536512824.73,25647,20.0,74490.8,1.17,-21.97,-22.11,0,*75
1536512825.98,25648,20.0,74490.5,1.17,-21.97,-22.07,0,*7D
1536512827.22,25649,20.0,74490.3,1.17,-21.77,-21.93,0,*7C
1536512828.47,25650,20.0,74494.5,1.17,-21.97,-22.11,0,*73
1536512829.71,25651,20.0,74486.8,1.17,-22.07,-22.21,0,*7B
1536512830.97,25652,20.0,74490.5,1.21,-21.93,-22.17,0,*76
1536512832.22,25653,20.0,74488.8,1.17,-21.97,-22.11,0,*70
1536512833.45,25654,20.0,74490.5,1.21,-21.93,-22.07,0,*71
1536512834.7,25655,20.0,74490.0,1.21,-22.03,-22.17,0,*7B
1536512835.94,25656,20.0,74488.5,1.21,-22.07,-22.21,0,*79
1536512837.2,25657,20.0,74490.3,1.17,-22.21,-22.27,0,*7F
1536512838.47,25658,20.0,74490.5,1.17,-21.97,-22.21,0,*78
1536512839.7,25659,20.0,74492.8,1.17,-22.11,-22.37,0,*73
1536512840.95,25660,20.0,74488.5,1.17,-22.11,-22.21,0,*7E
1536512842.15,25661,20.0,74490.3,1.15,-22.07,-22.11,0,*79
1536512843.38,25662,20.0,74492.5,1.15,-21.97,-22.11,0,*70
1536512844.58,25663,20.0,74490.5,1.15,-22.27,-22.41,0,*7C
1536512845.79,25664,20.0,74488.0,1.15,-22.27,-22.41,0,*7B
1536512846.99,25665,20.0,74490.3,1.15,-22.41,-22.41,0,*7A
1536512848.19,25666,20.0,74488.0,1.15,-22.37,-22.41,0,*78
1536512849.4,25667,20.0,74488.5,1.15,-22.37,-22.57,0,*7E
1536512850.69,25668,20.0,74488.5,1.13,-22.31,-22.47,0,*70
1536512851.9,25669,20.0,74490.5,1.15,-22.11,-22.27,0,*73
1536512853.13,25670,20.0,74488.3,1.13,-22.11,-22.27,0,*7D
1536512854.33,25671,20.0,74488.8,1.15,-22.27,-22.41,0,*7F
1536512855.56,25672,20.0,74494.5,1.15,-22.21,-22.41,0,*7A
1536512856.85,25673,20.0,74490.8,1.13,-22.31,-22.47,0,*7A
1536512858.08,25674,20.0,74490.5,1.13,-22.27,-22.41,0,*7C
1536512859.31,25675,20.0,74490.3,1.13,-22.27,-22.41,0,*7D
1536512860.53,25676,20.0,74490.3,1.13,-22.03,-22.27,0,*78
1536512861.74,25677,20.0,74488.0,1.11,-22.03,-22.11,0,*7E
1536512862.96,25678,20.0,74490.3,1.13,-22.03,-22.11,0,*73
1536512864.23,25679,20.0,74490.3,1.13,-22.17,-22.27,0,*72
1536512865.49,25680,20.0,74490.3,1.13,-22.03,-22.17,0,*72
1536512866.77,25681,20.0,74488.8,1.13,-21.97,-22.17,0,*7D
1536512868.03,25682,20.0,74490.5,1.13,-21.83,-22.11,0,*7D
1536512869.29,25683,20.0,74488.5,1.13,-22.03,-22.17,0,*71
1536512870.55,25684,20.0,74492.0,1.13,-21.87,-22.11,0,*7F
1536512871.81,25685,20.0,74492.0,1.13,-21.87,-22.03,0,*7D
1536512873.02,25686,20.0,74492.3,1.15,-22.03,-22.27,0,*71
1536512874.27,25687,20.0,74488.8,1.13,-22.27,-22.31,0,*77
1536512875.53,25688,20.0,74490.0,1.13,-21.97,-22.11,0,*72
1536512876.79,25689,20.0,74490.5,1.13,-22.03,-22.17,0,*7B
1536512878.02,25690,20.0,74488.3,1.15,-21.83,-22.07,0,*7F
1536512879.28,25691,20.0,74488.8,1.13,-21.97,-22.11,0,*7A
1536512880.51,25692,20.0,74492.0,1.15,-21.97,-22.11,0,*7F
1536512881.77,25693,20.0,74492.5,1.13,-22.03,-22.17,0,*70
1536512883.03,25694,20.0,74488.3,1.13,-22.03,-22.17,0,*77
1536512884.29,25695,20.0,74488.5,1.13,-22.11,-22.31,0,*71
1536512885.54,25696,20.0,74486.5,1.13,-22.03,-22.17,0,*75
1536512886.78,25697,20.0,74488.8,1.13,-22.11,-22.27,0,*74
1536512888.06,25698,20.0,74486.5,1.13,-21.97,-22.17,0,*75
1536512889.32,25699,20.0,74490.5,1.13,-22.03,-22.17,0,*7A
1536512890.58,25700,20.0,74492.0,1.11,-21.97,-22.17,0,*77
1536512891.78,25701,20.0,74490.3,1.11,-22.11,-22.27,0,*78
1536512893.05,25702,20.0,74490.3,1.11,-22.17,-22.31,0,*7A
1536512894.28,25703,20.0,74490.8,1.11,-22.03,-22.17,0,*7A
1536512895.51,25704,20.0,74488.8,1.11,-22.03,-22.17,0,*7D
1536512896.77,25705,20.0,74492.5,1.11,-21.97,-22.17,0,*72
1536512898.0,25706,20.0,74490.5,1.11,-21.87,-22.11,0,*76
1536512899.26,25707,20.0,74490.5,1.09,-22.03,-22.17,0,*77
1536512900.49,25708,20.0,74488.0,1.11,-21.83,-22.03,0,*7F
1536512901.72,25709,20.0,74492.8,1.11,-22.03,-22.21,0,*75
1536512902.94,25710,20.0,74490.5,1.11,-21.97,-22.11,0,*70
1536512904.21,25711,20.0,74490.8,1.11,-21.87,-22.17,0,*76
1536512905.44,25712,20.0,74488.5,1.11,-21.97,-22.11,0,*72
1536512906.69,25713,20.0,74490.3,1.09,-22.03,-22.21,0,*77